sat.trackr.live / text

‹ back to catalog

EXPRESS-MD2

NORAD 38745 · 2012-044B

PAYLOAD ACTIVE UNKNOWN

§ Identity

Operator
Country
CIS
Launch date
2012-08-06
Launch site
TYMSC
Launch vehicle
Mass (kg)
RCS (m²)
5.58

External: N2YO · Heavens-Above · Gunter

§ Orbital elements

Epoch: 2026-09-12T08:53:42.942624Z

Period
115.23 min
Inclination
49.8234°
Eccentricity
0.1541041
Mean motion
12.49659439 rev/d
Perigee alt
257.1 km
Apogee alt
2,674.7 km
Semi-major
7,844.1 km
B*
8.2643e-4
RAAN
140.6641°
Arg perigee
49.3068°
Mean anomaly
323.1789°
Rev number
57,168

§ Raw data

EXPRESS-MD21 38745U 12044B   26255.37063591  .00048688  57387-5  82643-3 0  99972 38745  49.8234 140.6641 1541041  49.3068 323.1789 12.49659439571689

JSON: /api/v1/satellites/38745 · /tle

For live sub-satellite position, see the globe view (requires WebGL).

§ Visibility from observer

Set your observer location to see the next 7 days of passes ≥ 10°. The values pass through the URL so the page stays shareable.

No JS? Fill the form by hand. The geolocation button needs JavaScript.